| time (UTC) | temp C | wind direction | speed KPH | gust KPH | rain 1hr cm | rain 24hr cm | rain mn cm | humidity % | barometer mb |
| 20260903162905 | 33 | 291 | 4.8 | 11.3 | 0.00 | 0.00 | 0.00 | 59 | 1012.9 |
| 20260903162402 | 33 | 228 | 6.4 | 9.7 | 0.00 | 0.00 | 0.00 | 59 | 1013.0 |
| 20260903161857 | 32 | 231 | 8.0 | 11.3 | 0.00 | 0.00 | 0.00 | 60 | 1013.0 |
| 20260903161352 | 33 | 233 | 3.2 | 9.7 | 0.00 | 0.00 | 0.00 | 62 | 1013.3 |
| 20260903160848 | 33 | 216 | 9.7 | 11.3 | 0.00 | 0.00 | 0.00 | 60 | 1013.3 |
| 20260903160346 | 33 | 246 | 3.2 | 4.8 | 0.00 | 0.00 | 0.00 | 57 | 1013.1 |
| 20260903155845 | 32 | 227 | 3.2 | 9.7 | 0.00 | 0.00 | 0.00 | 62 | 1013.3 |
| 20260903155341 | 32 | 291 | 3.2 | 9.7 | 0.00 | 0.00 | 0.00 | 61 | 1013.4 |
| 20260903154837 | 32 | 241 | 9.7 | 11.3 | 0.00 | 0.00 | 0.00 | 61 | 1013.2 |
| 20260903154333 | 32 | 262 | 4.8 | 4.8 | 0.00 | 0.00 | 0.00 | 60 | 1013.3 |
| 20260903153833 | 32 | 271 | 1.6 | 8.0 | 0.00 | 0.00 | 0.00 | 62 | 1013.2 |
| 20260903153329 | 31 | 254 | 4.8 | 12.9 | 0.00 | 0.00 | 0.00 | 63 | 1013.2 |
| 20260903152825 | 31 | 256 | 4.8 | 9.7 | 0.00 | 0.00 | 0.00 | 65 | 1013.2 |
| 20260903152320 | 32 | 267 | 3.2 | 8.0 | 0.00 | 0.00 | 0.00 | 64 | 1013.2 |
| 20260903151815 | 31 | 262 | 3.2 | 8.0 | 0.00 | 0.00 | 0.00 | 65 | 1013.2 |
| 20260903151311 | 31 | 285 | 3.2 | 8.0 | 0.00 | 0.00 | 0.00 | 66 | 1013.3 |
| 20260903150811 | 31 | 270 | 4.8 | 8.0 | 0.00 | 0.00 | 0.00 | 68 | 1013.4 |
| 20260903150311 | 31 | 263 | 0.0 | 4.8 | 0.00 | 0.00 | 0.00 | 67 | 1013.2 |
| 20260903145806 | 31 | 246 | 4.8 | 8.0 | 0.00 | 0.00 | 0.00 | 68 | 1013.2 |
| 20260903145301 | 30 | 220 | 4.8 | 4.8 | 0.00 | 0.00 | 0.00 | 70 | 1013.4 |
| 20260903144800 | 30 | 243 | 4.8 | 8.0 | 0.00 | 0.00 | 0.00 | 70 | 1013.3 |
| 20260903144256 | 30 | 223 | 1.6 | 8.0 | 0.00 | 0.00 | 0.00 | 70 | 1013.3 |
| 20260903143752 | 29 | 258 | 3.2 | 4.8 | 0.00 | 0.00 | 0.00 | 71 | 1013.3 |
| 20260903143248 | 29 | 247 | 3.2 | 4.8 | 0.00 | 0.00 | 0.00 | 72 | 1013.4 |
| 20260903142743 | 28 | 274 | 1.6 | 4.8 | 0.00 | 0.00 | 0.00 | 74 | 1013.4 |
| 20260903142239 | 28 | 221 | 1.6 | 8.0 | 0.00 | 0.00 | 0.00 | 75 | 1013.4 |
| 20260903141735 | 28 | 196 | 6.4 | 8.0 | 0.00 | 0.00 | 0.00 | 73 | 1013.3 |
| 20260903141230 | 28 | 219 | 4.8 | 8.0 | 0.00 | 0.00 | 0.00 | 73 | 1013.3 |
| 20260903140725 | 28 | 246 | 3.2 | 9.7 | 0.00 | 0.00 | 0.00 | 75 | 1013.1 |
| 20260903140220 | 27 | 265 | 1.6 | 8.0 | 0.00 | 0.00 | 0.00 | 76 | 1013.4 |
| 20260903135716 | 27 | 273 | 4.8 | 4.8 | 0.00 | 0.00 | 0.00 | 75 | 1013.6 |
| 20260903135211 | 27 | 302 | 1.6 | 4.8 | 0.00 | 0.00 | 0.00 | 78 | 1013.5 |
| 20260903134710 | 27 | 283 | 3.2 | 4.8 | 0.00 | 0.00 | 0.00 | 77 | 1013.3 |
| 20260903134206 | 27 | 234 | 4.8 | 8.0 | 0.00 | 0.00 | 0.00 | 78 | 1013.4 |
| 20260903133704 | 26 | 237 | 4.8 | 4.8 | 0.00 | 0.00 | 0.00 | 78 | 1013.3 |
| 20260903133200 | 26 | 189 | 4.8 | 8.0 | 0.00 | 0.00 | 0.00 | 78 | 1013.4 |
| 20260903132700 | 27 | 273 | 1.6 | 1.6 | 0.00 | 0.00 | 0.00 | 77 | 1013.4 |
| 20260903132200 | 26 | 310 | 0.0 | 0.0 | 0.00 | 0.00 | 0.00 | 79 | 1013.4 |
| 20260903131655 | 26 | 316 | 0.0 | 1.6 | 0.00 | 0.00 | 0.00 | 81 | 1013.5 |
| 20260903131149 | 26 | 296 | 0.0 | 1.6 | 0.00 | 0.00 | 0.00 | 81 | 1013.6 |
| 20260903130644 | 26 | 306 | 0.0 | 0.0 | 0.00 | 0.00 | 0.00 | 80 | 1013.5 |
| 20260903130143 | 25 | 306 | 0.0 | 0.0 | 0.00 | 0.00 | 0.00 | 81 | 1013.2 |
| 20260903125642 | 25 | 307 | 0.0 | 0.0 | 0.00 | 0.00 | 0.00 | 83 | 1013.3 |
| 20260903125137 | 25 | 308 | 0.0 | 1.6 | 0.00 | 0.00 | 0.00 | 85 | 1013.2 |
| 20260903124638 | 24 | 308 | 1.6 | 1.6 | 0.00 | 0.00 | 0.00 | 86 | 1013.2 |
| 20260903124137 | 24 | 279 | 0.0 | 0.0 | 0.00 | 0.00 | 0.00 | 86 | 1013.2 |
| 20260903123631 | 23 | 278 | 0.0 | 1.6 | 0.00 | 0.00 | 0.00 | 88 | 1013.3 |
| 20260903123130 | 23 | 344 | 3.2 | 4.8 | 0.00 | 0.00 | 0.00 | 88 | 1013.4 |
| 20260903122624 | 23 | 326 | 3.2 | 3.2 | 0.00 | 0.00 | 0.00 | 88 | 1013.0 |
| 20260903122119 | 23 | 306 | 0.0 | 3.2 | 0.00 | 0.00 | 0.00 | 88 | 1013.0 |
| 20260903121618 | 23 | 301 | 1.6 | 3.2 | 0.00 | 0.00 | 0.00 | 88 | 1013.0 |
| 20260903121113 | 23 | 279 | 0.0 | 1.6 | 0.00 | 0.00 | 0.00 | 87 | 1012.6 |
| 20260903120612 | 23 | 236 | 3.2 | 4.8 | 0.00 | 0.00 | 0.00 | 87 | 1012.5 |
| 20260903120107 | 23 | 245 | 3.2 | 4.8 | 0.00 | 0.00 | 0.00 | 87 | 1012.7 |
| 20260903115605 | 23 | 236 | 3.2 | 3.2 | 0.00 | 0.00 | 0.00 | 88 | 1012.6 |
| 20260903115100 | 23 | 237 | 3.2 | 4.8 | 0.00 | 0.00 | 0.00 | 87 | 1012.4 |
| 20260903114555 | 23 | 222 | 3.2 | 4.8 | 0.00 | 0.00 | 0.00 | 87 | 1012.5 |
| 20260903114046 | 23 | 232 | 3.2 | 4.8 | 0.00 | 0.00 | 0.00 | 87 | 1012.4 |
| 20260903113541 | 23 | 221 | 3.2 | 4.8 | 0.00 | 0.00 | 0.00 | 87 | 1012.4 |
| 20260903113037 | 23 | 212 | 4.8 | 4.8 | 0.00 | 0.00 | 0.00 | 86 | 1012.4 |
| 20260903112533 | 23 | 244 | 4.8 | 4.8 | 0.00 | 0.00 | 0.00 | 86 | 1012.5 |
| 20260903112028 | 23 | 211 | 4.8 | 8.0 | 0.00 | 0.00 | 0.00 | 86 | 1012.2 |
| 20260903111526 | 23 | 214 | 4.8 | 4.8 | 0.00 | 0.00 | 0.00 | 87 | 1012.2 |
| 20260903111023 | 23 | 209 | 3.2 | 4.8 | 0.00 | 0.00 | 0.00 | 87 | 1012.2 |
| 20260903110518 | 23 | 213 | 4.8 | 4.8 | 0.00 | 0.00 | 0.00 | 87 | 1012.1 |
| 20260903110013 | 23 | 213 | 4.8 | 4.8 | 0.00 | 0.00 | 0.00 | 86 | 1011.8 |
| 20260903105508 | 24 | 195 | 4.8 | 8.0 | 0.00 | 0.00 | 0.00 | 86 | 1012.0 |
| 20260903105007 | 24 | 207 | 3.2 | 8.0 | 0.00 | 0.00 | 0.00 | 85 | 1012.1 |
| 20260903104502 | 25 | 213 | 6.4 | 8.0 | 0.00 | 0.00 | 0.00 | 85 | 1012.0 |
| 20260903103958 | 25 | 230 | 6.4 | 9.7 | 0.00 | 0.00 | 0.00 | 84 | 1012.0 |
| 20260903103454 | 25 | 217 | 8.0 | 8.0 | 0.00 | 0.00 | 0.00 | 84 | 1011.9 |
| 20260903102949 | 25 | 223 | 4.8 | 4.8 | 0.00 | 0.00 | 0.00 | 84 | 1011.7 |
| 20260903102444 | 25 | 215 | 6.4 | 9.7 | 0.00 | 0.00 | 0.00 | 83 | 1011.8 |
| 20260903101942 | 25 | 222 | 4.8 | 8.0 | 0.00 | 0.00 | 0.00 | 84 | 1011.8 |
| 20260903101432 | 25 | 237 | 3.2 | 8.0 | 0.00 | 0.00 | 0.00 | 84 | 1011.8 |
| 20260903100928 | 25 | 206 | 4.8 | 8.0 | 0.00 | 0.00 | 0.00 | 83 | 1011.7 |
| 20260903100423 | 25 | 220 | 6.4 | 8.0 | 0.00 | 0.00 | 0.00 | 83 | 1011.7 |
| 20260903095920 | 25 | 165 | 4.8 | 9.7 | 0.00 | 0.00 | 0.00 | 83 | 1011.6 |
| 20260903095414 | 25 | 219 | 4.8 | 8.0 | 0.00 | 0.00 | 0.00 | 83 | 1011.8 |
| 20260903094909 | 25 | 211 | 4.8 | 9.7 | 0.00 | 0.00 | 0.00 | 83 | 1011.8 |
| 20260903094403 | 25 | 218 | 6.4 | 8.0 | 0.00 | 0.00 | 0.00 | 82 | 1011.8 |
| 20260903093900 | 25 | 219 | 6.4 | 9.7 | 0.00 | 0.00 | 0.00 | 82 | 1011.9 |
| 20260903093354 | 25 | 210 | 6.4 | 9.7 | 0.00 | 0.00 | 0.00 | 81 | 1011.8 |
| 20260903092850 | 25 | 244 | 4.8 | 8.0 | 0.00 | 0.00 | 0.00 | 81 | 1011.8 |
| 20260903092349 | 25 | 184 | 4.8 | 9.7 | 0.00 | 0.00 | 0.00 | 81 | 1011.7 |
| 20260903091848 | 25 | 212 | 4.8 | 8.0 | 0.00 | 0.00 | 0.00 | 81 | 1011.6 |
| 20260903091348 | 25 | 221 | 8.0 | 11.3 | 0.00 | 0.00 | 0.00 | 80 | 1011.6 |
| 20260903090843 | 26 | 215 | 4.8 | 8.0 | 0.00 | 0.00 | 0.00 | 80 | 1011.8 |
| 20260903090338 | 26 | 217 | 4.8 | 9.7 | 0.00 | 0.00 | 0.00 | 80 | 1011.6 |
| 20260903085836 | 26 | 188 | 4.8 | 9.7 | 0.00 | 0.00 | 0.00 | 79 | 1011.7 |
| 20260903085335 | 26 | 198 | 6.4 | 9.7 | 0.00 | 0.00 | 0.00 | 79 | 1011.8 |
| 20260903084834 | 26 | 228 | 6.4 | 9.7 | 0.00 | 0.00 | 0.00 | 79 | 1011.6 |
| 20260903084333 | 26 | 200 | 6.4 | 9.7 | 0.00 | 0.00 | 0.00 | 79 | 1011.6 |
| 20260903083829 | 26 | 200 | 6.4 | 8.0 | 0.00 | 0.00 | 0.00 | 79 | 1011.6 |
| 20260903083325 | 26 | 216 | 6.4 | 9.7 | 0.00 | 0.00 | 0.00 | 78 | 1011.8 |
| 20260903082823 | 26 | 210 | 4.8 | 9.7 | 0.00 | 0.00 | 0.00 | 78 | 1011.7 |
| 20260903082319 | 26 | 190 | 6.4 | 9.7 | 0.00 | 0.00 | 0.00 | 78 | 1011.7 |
| 20260903081814 | 26 | 198 | 8.0 | 8.0 | 0.00 | 0.00 | 0.00 | 78 | 1011.6 |
| 20260903081309 | 26 | 215 | 6.4 | 11.3 | 0.00 | 0.00 | 0.00 | 78 | 1011.7 |
| 20260903080806 | 26 | 188 | 4.8 | 9.7 | 0.00 | 0.00 | 0.00 | 78 | 1011.7 |
| 20260903080304 | 26 | 213 | 4.8 | 9.7 | 0.00 | 0.00 | 0.00 | 77 | 1011.6 |
| 20260903075802 | 26 | 220 | 4.8 | 8.0 | 0.00 | 0.00 | 0.00 | 77 | 1011.7 |
| 20260903075257 | 26 | 196 | 8.0 | 11.3 | 0.00 | 0.00 | 0.00 | 77 | 1011.8 |
| 20260903074756 | 27 | 218 | 8.0 | 12.9 | 0.00 | 0.00 | 0.00 | 76 | 1011.8 |
| 20260903074252 | 27 | 218 | 6.4 | 11.3 | 0.00 | 0.00 | 0.00 | 77 | 1011.9 |
| 20260903073742 | 27 | 208 | 8.0 | 12.9 | 0.00 | 0.00 | 0.00 | 76 | 1011.7 |
| 20260903073237 | 27 | 210 | 9.7 | 11.3 | 0.00 | 0.00 | 0.00 | 76 | 1011.9 |
| 20260903072733 | 27 | 247 | 6.4 | 9.7 | 0.00 | 0.00 | 0.00 | 76 | 1011.9 |
| 20260903072229 | 27 | 230 | 6.4 | 12.9 | 0.00 | 0.00 | 0.00 | 76 | 1011.8 |
| 20260903071725 | 27 | 209 | 4.8 | 9.7 | 0.00 | 0.00 | 0.00 | 76 | 1011.9 |
| 20260903071215 | 27 | 214 | 6.4 | 9.7 | 0.00 | 0.00 | 0.00 | 76 | 1011.8 |
| 20260903070715 | 27 | 185 | 4.8 | 16.1 | 0.00 | 0.00 | 0.00 | 76 | 1011.8 |
| 20260903070210 | 27 | 210 | 8.0 | 11.3 | 0.00 | 0.00 | 0.00 | 76 | 1011.9 |
| 20260903065705 | 27 | 224 | 9.7 | 14.5 | 0.00 | 0.00 | 0.00 | 75 | 1011.9 |
| 20260903065159 | 27 | 201 | 9.7 | 14.5 | 0.00 | 0.00 | 0.00 | 76 | 1011.7 |
| 20260903064658 | 27 | 205 | 8.0 | 12.9 | 0.00 | 0.00 | 0.00 | 76 | 1011.8 |
| 20260903064153 | 27 | 174 | 8.0 | 11.3 | 0.00 | 0.00 | 0.00 | 76 | 1012.1 |
| 20260903063643 | 27 | 205 | 9.7 | 11.3 | 0.00 | 0.00 | 0.00 | 76 | 1012.0 |
| 20260903063138 | 27 | 209 | 6.4 | 11.3 | 0.00 | 0.00 | 0.00 | 76 | 1012.0 |
| 20260903062634 | 27 | 191 | 8.0 | 9.7 | 0.00 | 0.00 | 0.00 | 76 | 1012.0 |
| 20260903062129 | 27 | 213 | 6.4 | 9.7 | 0.00 | 0.00 | 0.00 | 76 | 1011.9 |
| 20260903061624 | 27 | 237 | 6.4 | 11.3 | 0.00 | 0.00 | 0.00 | 76 | 1012.0 |
| 20260903061123 | 26 | 213 | 6.4 | 8.0 | 0.00 | 0.00 | 0.00 | 77 | 1012.0 |
| 20260903060618 | 27 | 164 | 6.4 | 9.7 | 0.00 | 0.00 | 0.00 | 77 | 1012.1 |
| 20260903060114 | 27 | 213 | 8.0 | 9.7 | 0.00 | 0.00 | 0.00 | 77 | 1011.9 |
| 20260903055611 | 26 | 202 | 6.4 | 9.7 | 0.00 | 0.00 | 0.00 | 77 | 1011.9 |
| 20260903055109 | 26 | 188 | 6.4 | 9.7 | 0.00 | 0.00 | 0.00 | 78 | 1011.8 |
| 20260903054604 | 26 | 230 | 4.8 | 9.7 | 0.00 | 0.00 | 0.00 | 78 | 1012.1 |
| 20260903054101 | 26 | 204 | 4.8 | 8.0 | 0.00 | 0.00 | 0.00 | 79 | 1012.1 |
| 20260903053556 | 26 | 235 | 4.8 | 8.0 | 0.00 | 0.00 | 0.00 | 79 | 1012.0 |
| 20260903053052 | 26 | 191 | 4.8 | 8.0 | 0.00 | 0.00 | 0.00 | 79 | 1012.0 |
| 20260903052548 | 26 | 231 | 4.8 | 4.8 | 0.00 | 0.00 | 0.00 | 79 | 1012.2 |
| 20260903052043 | 26 | 257 | 3.2 | 4.8 | 0.00 | 0.00 | 0.00 | 79 | 1012.1 |
| 20260903051542 | 26 | 247 | 4.8 | 4.8 | 0.00 | 0.00 | 0.00 | 79 | 1012.3 |
| 20260903051038 | 26 | 209 | 3.2 | 4.8 | 0.00 | 0.00 | 0.00 | 79 | 1012.2 |
| 20260903050537 | 27 | 195 | 4.8 | 8.0 | 0.00 | 0.00 | 0.00 | 78 | 1012.1 |
| 20260903050033 | 27 | 212 | 6.4 | 8.0 | 0.00 | 0.00 | 0.00 | 78 | 1012.2 |
| 20260903045532 | 27 | 233 | 6.4 | 8.0 | 0.00 | 0.00 | 0.00 | 78 | 1012.1 |
| 20260903045029 | 27 | 175 | 4.8 | 9.7 | 0.00 | 0.00 | 0.00 | 77 | 1012.1 |
| 20260903044525 | 27 | 211 | 4.8 | 9.7 | 0.00 | 0.00 | 0.00 | 77 | 1012.1 |
| 20260903044020 | 27 | 211 | 4.8 | 8.0 | 0.00 | 0.00 | 0.00 | 77 | 1012.3 |
| 20260903043516 | 27 | 229 | 4.8 | 8.0 | 0.00 | 0.00 | 0.00 | 77 | 1012.1 |
| 20260903043015 | 27 | 211 | 6.4 | 9.7 | 0.00 | 0.00 | 0.00 | 77 | 1012.3 |
| 20260903042510 | 27 | 191 | 4.8 | 9.7 | 0.00 | 0.00 | 0.00 | 77 | 1012.1 |
| 20260903042006 | 27 | 206 | 6.4 | 9.7 | 0.00 | 0.00 | 0.00 | 77 | 1012.2 |
| 20260903041502 | 27 | 204 | 4.8 | 8.0 | 0.00 | 0.00 | 0.00 | 78 | 1012.3 |
| 20260903040957 | 27 | 213 | 4.8 | 8.0 | 0.00 | 0.00 | 0.00 | 77 | 1012.0 |
| 20260903040456 | 27 | 219 | 4.8 | 8.0 | 0.00 | 0.00 | 0.00 | 77 | 1012.1 |
| 20260903035953 | 27 | 217 | 4.8 | 9.7 | 0.00 | 0.00 | 0.00 | 77 | 1012.4 |
| 20260903035442 | 27 | 216 | 4.8 | 9.7 | 0.00 | 0.00 | 0.00 | 77 | 1012.0 |
| 20260903034937 | 27 | 224 | 6.4 | 8.0 | 0.00 | 0.00 | 0.00 | 77 | 1012.0 |
| 20260903034432 | 27 | 238 | 4.8 | 8.0 | 0.00 | 0.00 | 0.00 | 78 | 1012.3 |
| 20260903033927 | 27 | 220 | 4.8 | 4.8 | 0.00 | 0.00 | 0.00 | 77 | 1012.2 |
| 20260903033422 | 27 | 233 | 4.8 | 8.0 | 0.00 | 0.00 | 0.00 | 77 | 1012.2 |
| 20260903032917 | 27 | 211 | 4.8 | 8.0 | 0.00 | 0.00 | 0.00 | 78 | 1012.1 |
| 20260903032413 | 27 | 261 | 1.6 | 3.2 | 0.00 | 0.00 | 0.00 | 78 | 1012.3 |
| 20260903031913 | 27 | 229 | 1.6 | 4.8 | 0.00 | 0.00 | 0.00 | 77 | 1012.0 |
| 20260903031413 | 27 | 221 | 4.8 | 4.8 | 0.00 | 0.00 | 0.00 | 76 | 1012.2 |
| 20260903030903 | 27 | 187 | 4.8 | 4.8 | 0.00 | 0.00 | 0.00 | 75 | 1012.1 |
| 20260903030359 | 27 | 229 | 3.2 | 9.7 | 0.00 | 0.00 | 0.00 | 76 | 1012.0 |
| 20260903025855 | 27 | 242 | 3.2 | 3.2 | 0.00 | 0.00 | 0.00 | 76 | 1012.0 |
| 20260903025350 | 27 | 263 | 3.2 | 3.2 | 0.00 | 0.00 | 0.00 | 75 | 1012.2 |
| 20260903024849 | 27 | 232 | 3.2 | 4.8 | 0.00 | 0.00 | 0.00 | 75 | 1012.3 |
| 20260903024343 | 28 | 212 | 3.2 | 4.8 | 0.00 | 0.00 | 0.00 | 75 | 1012.0 |
| 20260903023839 | 28 | 225 | 4.8 | 4.8 | 0.00 | 0.00 | 0.00 | 74 | 1012.0 |
| 20260903023334 | 28 | 211 | 4.8 | 8.0 | 0.00 | 0.00 | 0.00 | 74 | 1012.1 |
| 20260903022829 | 28 | 227 | 4.8 | 8.0 | 0.00 | 0.00 | 0.00 | 74 | 1011.9 |
| 20260903022329 | 28 | 204 | 4.8 | 8.0 | 0.00 | 0.00 | 0.00 | 74 | 1012.0 |
| 20260903021823 | 28 | 225 | 3.2 | 4.8 | 0.00 | 0.00 | 0.00 | 74 | 1012.0 |
| 20260903021319 | 28 | 206 | 4.8 | 4.8 | 0.00 | 0.00 | 0.00 | 73 | 1012.0 |
| 20260903020818 | 28 | 232 | 3.2 | 4.8 | 0.00 | 0.00 | 0.00 | 73 | 1012.1 |
| 20260903020313 | 28 | 173 | 4.8 | 8.0 | 0.00 | 0.00 | 0.00 | 73 | 1011.9 |
| 20260903015809 | 28 | 223 | 3.2 | 4.8 | 0.00 | 0.00 | 0.00 | 74 | 1012.1 |
| 20260903015309 | 28 | 210 | 4.8 | 4.8 | 0.00 | 0.00 | 0.00 | 73 | 1012.0 |
| 20260903014804 | 28 | 198 | 4.8 | 8.0 | 0.00 | 0.00 | 0.00 | 73 | 1011.8 |
| 20260903014304 | 28 | 218 | 4.8 | 8.0 | 0.00 | 0.00 | 0.00 | 74 | 1011.9 |
| 20260903013759 | 29 | 200 | 3.2 | 8.0 | 0.00 | 0.00 | 0.00 | 74 | 1011.8 |
| 20260903013258 | 29 | 210 | 4.8 | 4.8 | 0.00 | 0.00 | 0.00 | 73 | 1011.7 |
| 20260903012757 | 29 | 253 | 3.2 | 4.8 | 0.00 | 0.00 | 0.00 | 73 | 1011.6 |
| 20260903012251 | 30 | 181 | 4.8 | 8.0 | 0.00 | 0.00 | 0.00 | 73 | 1011.8 |
| 20260903011746 | 30 | 190 | 4.8 | 9.7 | 0.00 | 0.00 | 0.00 | 73 | 1011.6 |
| 20260903011245 | 30 | 191 | 6.4 | 9.7 | 0.00 | 0.00 | 0.00 | 73 | 1011.5 |
| 20260903010741 | 30 | 196 | 6.4 | 9.7 | 0.00 | 0.00 | 0.00 | 74 | 1011.6 |
| 20260903010236 | 30 | 165 | 6.4 | 8.0 | 0.00 | 0.00 | 0.00 | 73 | 1011.7 |
| 20260903005734 | 30 | 196 | 6.4 | 8.0 | 0.00 | 0.00 | 0.00 | 73 | 1011.5 |
| 20260903005229 | 30 | 189 | 3.2 | 4.8 | 0.00 | 0.00 | 0.00 | 73 | 1011.4 |
| 20260903004725 | 30 | 176 | 4.8 | 11.3 | 0.00 | 0.00 | 0.00 | 72 | 1011.7 |
| 20260903004221 | 30 | 178 | 3.2 | 4.8 | 0.00 | 0.00 | 0.00 | 74 | 1011.7 |
| 20260903003715 | 30 | 236 | 3.2 | 3.2 | 0.00 | 0.00 | 0.00 | 73 | 1011.4 |
| 20260903003211 | 31 | 185 | 3.2 | 4.8 | 0.00 | 0.00 | 0.00 | 72 | 1011.6 |
| 20260903002705 | 31 | 177 | 4.8 | 8.0 | 0.00 | 0.00 | 0.00 | 70 | 1011.5 |
| 20260903002159 | 31 | 214 | 4.8 | 8.0 | 0.00 | 0.00 | 0.00 | 70 | 1011.5 |
| 20260903001655 | 31 | 205 | 3.2 | 8.0 | 0.00 | 0.00 | 0.00 | 70 | 1011.5 |
| 20260903001148 | 31 | 203 | 3.2 | 8.0 | 0.00 | 0.00 | 0.00 | 70 | 1011.5 |
| 20260903000644 | 32 | 191 | 4.8 | 4.8 | 0.00 | 0.00 | 0.00 | 69 | 1011.4 |
| 20260903000138 | 32 | 198 | 4.8 | 9.7 | 0.00 | 0.00 | 0.00 | 68 | 1011.4 |
| 20260902235636 | 32 | 201 | 4.8 | 8.0 | 0.00 | 0.00 | 0.00 | 67 | 1011.4 |
| 20260902235126 | 32 | 191 | 4.8 | 4.8 | 0.00 | 0.00 | 0.00 | 66 | 1011.6 |
| 20260902234620 | 32 | 190 | 3.2 | 4.8 | 0.00 | 0.00 | 0.00 | 65 | 1011.7 |
| 20260902234118 | 33 | 189 | 4.8 | 8.0 | 0.00 | 0.00 | 0.00 | 63 | 1011.5 |
| 20260902233614 | 33 | 177 | 4.8 | 4.8 | 0.00 | 0.00 | 0.00 | 64 | 1011.8 |
| 20260902233108 | 33 | 204 | 4.8 | 8.0 | 0.00 | 0.00 | 0.00 | 64 | 1011.7 |
| 20260902232607 | 33 | 199 | 4.8 | 8.0 | 0.00 | 0.00 | 0.00 | 62 | 1011.7 |
| 20260902232101 | 33 | 197 | 4.8 | 8.0 | 0.00 | 0.00 | 0.00 | 63 | 1011.8 |
| 20260902231556 | 33 | 183 | 4.8 | 8.0 | 0.00 | 0.00 | 0.00 | 63 | 1011.6 |
| 20260902231050 | 34 | 256 | 1.6 | 3.2 | 0.00 | 0.00 | 0.00 | 62 | 1011.4 |
| 20260902230545 | 35 | 238 | 3.2 | 4.8 | 0.00 | 0.00 | 0.00 | 59 | 1011.7 |
| 20260902230044 | 35 | 250 | 1.6 | 4.8 | 0.00 | 0.00 | 0.00 | 60 | 1011.7 |
| 20260902225539 | 34 | 221 | 4.8 | 8.0 | 0.00 | 0.00 | 0.00 | 58 | 1011.6 |
| 20260902225039 | 35 | 184 | 6.4 | 9.7 | 0.00 | 0.00 | 0.00 | 57 | 1011.7 |
| 20260902224538 | 35 | 209 | 4.8 | 9.7 | 0.00 | 0.00 | 0.00 | 58 | 1011.7 |
| 20260902224034 | 35 | 219 | 6.4 | 8.0 | 0.00 | 0.00 | 0.00 | 57 | 1011.6 |
| 20260902223530 | 35 | 216 | 4.8 | 9.7 | 0.00 | 0.00 | 0.00 | 57 | 1011.7 |
| 20260902223029 | 35 | 210 | 6.4 | 11.3 | 0.00 | 0.00 | 0.00 | 56 | 1011.7 |
| 20260902222528 | 35 | 175 | 9.7 | 12.9 | 0.00 | 0.00 | 0.00 | 55 | 1011.7 |
| 20260902222026 | 35 | 232 | 8.0 | 12.9 | 0.00 | 0.00 | 0.00 | 54 | 1011.9 |
| 20260902221521 | 35 | 268 | 3.2 | 9.7 | 0.00 | 0.00 | 0.00 | 56 | 1012.0 |
| 20260902221016 | 35 | 225 | 8.0 | 11.3 | 0.00 | 0.00 | 0.00 | 55 | 1011.6 |
| 20260902220511 | 35 | 211 | 6.4 | 11.3 | 0.00 | 0.00 | 0.00 | 54 | 1011.7 |
| 20260902220006 | 35 | 199 | 8.0 | 9.7 | 0.00 | 0.00 | 0.00 | 55 | 1011.9 |
| 20260902215502 | 35 | 223 | 4.8 | 9.7 | 0.00 | 0.00 | 0.00 | 54 | 1011.8 |
| 20260902214958 | 35 | 189 | 8.0 | 12.9 | 0.00 | 0.00 | 0.00 | 52 | 1012.0 |
| 20260902214457 | 35 | 218 | 8.0 | 14.5 | 0.00 | 0.00 | 0.00 | 53 | 1011.8 |
| 20260902213955 | 35 | 219 | 8.0 | 12.9 | 0.00 | 0.00 | 0.00 | 54 | 1012.0 |
| 20260902213452 | 35 | 195 | 4.8 | 12.9 | 0.00 | 0.00 | 0.00 | 54 | 1012.0 |
| 20260902212951 | 35 | 243 | 6.4 | 11.3 | 0.00 | 0.00 | 0.00 | 52 | 1011.9 |
| 20260902212447 | 35 | 237 | 12.9 | 20.9 | 0.00 | 0.00 | 0.00 | 51 | 1012.0 |
| 20260902211943 | 35 | 223 | 6.4 | 16.1 | 0.00 | 0.00 | 0.00 | 52 | 1012.0 |
| 20260902211439 | 35 | 219 | 14.5 | 25.7 | 0.00 | 0.00 | 0.00 | 51 | 1011.9 |
| 20260902210933 | 35 | 242 | 8.0 | 12.9 | 0.00 | 0.00 | 0.00 | 54 | 1012.1 |
| 20260902210428 | 35 | 265 | 6.4 | 12.9 | 0.00 | 0.00 | 0.00 | 53 | 1012.1 |
| 20260902205926 | 35 | 229 | 9.7 | 12.9 | 0.00 | 0.00 | 0.00 | 51 | 1012.0 |
| 20260902205416 | 35 | 241 | 8.0 | 12.9 | 0.00 | 0.00 | 0.00 | 54 | 1012.1 |
| 20260902204912 | 35 | 194 | 9.7 | 17.7 | 0.00 | 0.00 | 0.00 | 52 | 1011.9 |
| 20260902204411 | 35 | 225 | 11.3 | 12.9 | 0.00 | 0.00 | 0.00 | 54 | 1012.0 |
| 20260902203907 | 35 | 230 | 11.3 | 16.1 | 0.00 | 0.00 | 0.00 | 54 | 1012.1 |
| 20260902203402 | 35 | 206 | 8.0 | 14.5 | 0.00 | 0.00 | 0.00 | 54 | 1012.1 |
| 20260902202856 | 35 | 149 | 11.3 | 17.7 | 0.00 | 0.00 | 0.00 | 54 | 1012.2 |
| 20260902202352 | 35 | 196 | 8.0 | 12.9 | 0.00 | 0.00 | 0.00 | 55 | 1012.2 |
| 20260902201849 | 35 | 206 | 8.0 | 11.3 | 0.00 | 0.00 | 0.00 | 55 | 1012.2 |
| 20260902201348 | 36 | 214 | 8.0 | 9.7 | 0.00 | 0.00 | 0.00 | 54 | 1012.5 |
| 20260902200843 | 36 | 212 | 11.3 | 12.9 | 0.00 | 0.00 | 0.00 | 53 | 1012.4 |
| 20260902200339 | 36 | 197 | 9.7 | 16.1 | 0.00 | 0.00 | 0.00 | 54 | 1012.7 |
| 20260902195834 | 35 | 205 | 8.0 | 14.5 | 0.00 | 0.00 | 0.00 | 54 | 1012.7 |
| 20260902195333 | 35 | 199 | 11.3 | 14.5 | 0.00 | 0.00 | 0.00 | 54 | 1012.5 |
| 20260902194828 | 35 | 194 | 9.7 | 17.7 | 0.00 | 0.00 | 0.00 | 54 | 1012.7 |
| 20260902194327 | 35 | 220 | 11.3 | 16.1 | 0.00 | 0.00 | 0.00 | 56 | 1012.6 |
| 20260902193823 | 35 | 200 | 12.9 | 20.9 | 0.00 | 0.00 | 0.00 | 55 | 1012.8 |
| 20260902193319 | 35 | 210 | 9.7 | 16.1 | 0.00 | 0.00 | 0.00 | 55 | 1012.8 |
| 20260902192818 | 35 | 218 | 11.3 | 17.7 | 0.00 | 0.00 | 0.00 | 54 | 1012.9 |
| 20260902192316 | 35 | 207 | 14.5 | 17.7 | 0.00 | 0.00 | 0.00 | 54 | 1012.8 |
| 20260902191816 | 35 | 230 | 9.7 | 16.1 | 0.00 | 0.00 | 0.00 | 54 | 1012.9 |
| 20260902191312 | 35 | 208 | 14.5 | 20.9 | 0.00 | 0.00 | 0.00 | 54 | 1012.8 |
| 20260902190807 | 35 | 234 | 6.4 | 14.5 | 0.00 | 0.00 | 0.00 | 56 | 1013.0 |
| 20260902190306 | 35 | 223 | 6.4 | 11.3 | 0.00 | 0.00 | 0.00 | 54 | 1013.1 |
| 20260902185803 | 35 | 228 | 8.0 | 20.9 | 0.00 | 0.00 | 0.00 | 55 | 1013.1 |
| 20260902185258 | 35 | 204 | 6.4 | 9.7 | 0.00 | 0.00 | 0.00 | 55 | 1013.2 |
| 20260902184754 | 34 | 209 | 8.0 | 14.5 | 0.00 | 0.00 | 0.00 | 58 | 1013.2 |
| 20260902184249 | 34 | 228 | 3.2 | 12.9 | 0.00 | 0.00 | 0.00 | 59 | 1013.1 |
| 20260902183744 | 34 | 212 | 11.3 | 14.5 | 0.00 | 0.00 | 0.00 | 59 | 1013.4 |
| 20260902183240 | 34 | 182 | 11.3 | 12.9 | 0.00 | 0.00 | 0.00 | 57 | 1013.6 |
| 20260902182736 | 33 | 294 | 6.4 | 11.3 | 0.00 | 0.00 | 0.00 | 59 | 1013.4 |
| 20260902182233 | 33 | 219 | 11.3 | 20.9 | 0.00 | 0.00 | 0.00 | 59 | 1013.5 |
| 20260902181729 | 33 | 239 | 9.7 | 17.7 | 0.00 | 0.00 | 0.00 | 58 | 1013.6 |
| 20260902181228 | 33 | 219 | 12.9 | 17.7 | 0.00 | 0.00 | 0.00 | 60 | 1013.7 |
| 20260902180723 | 33 | 229 | 6.4 | 11.3 | 0.00 | 0.00 | 0.00 | 59 | 1013.6 |
| 20260902180219 | 33 | 186 | 9.7 | 12.9 | 0.00 | 0.00 | 0.00 | 59 | 1013.5 |
| 20260902175713 | 33 | 257 | 6.4 | 16.1 | 0.00 | 0.00 | 0.00 | 60 | 1013.5 |
| 20260902175209 | 33 | 214 | 8.0 | 12.9 | 0.00 | 0.00 | 0.00 | 58 | 1013.5 |
| 20260902174705 | 32 | 238 | 8.0 | 16.1 | 0.00 | 0.00 | 0.00 | 59 | 1013.9 |
| 20260902174201 | 33 | 195 | 4.8 | 12.9 | 0.00 | 0.00 | 0.00 | 60 | 1013.9 |
| 20260902173656 | 33 | 207 | 4.8 | 9.7 | 0.00 | 0.00 | 0.00 | 58 | 1013.9 |
| 20260902173151 | 33 | 249 | 8.0 | 9.7 | 0.00 | 0.00 | 0.00 | 59 | 1013.9 |
| 20260902172646 | 32 | 212 | 6.4 | 14.5 | 0.00 | 0.00 | 0.00 | 62 | 1014.1 |
| 20260902172144 | 32 | 171 | 4.8 | 9.7 | 0.00 | 0.00 | 0.00 | 61 | 1013.9 |
| 20260902171640 | 32 | 167 | 11.3 | 20.9 | 0.00 | 0.00 | 0.00 | 61 | 1014.1 |
| 20260902171136 | 32 | 215 | 8.0 | 14.5 | 0.00 | 0.00 | 0.00 | 60 | 1014.2 |
| 20260902170631 | 32 | 230 | 12.9 | 17.7 | 0.00 | 0.00 | 0.00 | 60 | 1014.2 |
| 20260902170127 | 32 | 226 | 4.8 | 11.3 | 0.00 | 0.00 | 0.00 | 60 | 1014.2 |
| 20260902165627 | 32 | 223 | 8.0 | 12.9 | 0.00 | 0.00 | 0.00 | 60 | 1014.5 |
| 20260902165121 | 32 | 219 | 6.4 | 12.9 | 0.00 | 0.00 | 0.00 | 61 | 1014.5 |
| 20260902164616 | 32 | 212 | 8.0 | 11.3 | 0.00 | 0.00 | 0.00 | 61 | 1014.6 |
| 20260902164115 | 31 | 215 | 8.0 | 12.9 | 0.00 | 0.00 | 0.00 | 63 | 1014.3 |
| 20260902163611 | 31 | 218 | 6.4 | 9.7 | 0.00 | 0.00 | 0.00 | 62 | 1014.5 |